Mona Airport

Jump to: basic info | weather | comments

Related pages: nearby airports | nearby navaids

Basic information (top)

Location: lon 18.075300, lat -67.931000, elev 1 ft / 0 m msl
Status: small_airport

Weather (top)

Current conditions for Punta Cana International Airport 38nm (71km) NW (rec'd 2014/11/27 15:00Z):

MDPC 271500Z 13008KT 9999 SCT020 SCT080 28/23 Q1016

Airport forecast for Punta Cana International Airport 38nm (71km) NW (rec'd 2014/11/27 12:00Z):

TAF MDPC 271000Z 2712/2812 12008KT 9999 SCT018 PROB30 2714/2720 8000 ?SH BKN017

Latest comments (top)

No comments yet for Mona Airport

More... (top)

See also NOTAMs and nearby airports and navaids, or visit the Mona Airport page at the main OurAirports website..